User: anonymous   Login
Location: Most
(50.5133°N, 13.6207°E)
Time: 12:05:12
(UTC+01:00)
Language:

AO-92 - Orbit

View from above orbital plane
View from above orbital plane
View from above satellite
View from above satellite

Ground track
Ground track

The orbit data is extracted from the following two-line orbital elements,

1 43137U 18004AC  21334.86223667  .00003243  00000-0  12830-3 0  9993
2 43137  97.3928  47.1319 0008148 355.4347   4.6816 15.26151206216031
Epoch (UTC): 30 November 2021 20:41:37
Eccentricity: 0.0008148
inclination: 97.3928°
perigee height: 482 km
apogee height: 493 km
right ascension of ascending node: 47.1319°
argument of perigee: 355.4347°
revolutions per day: 15.26151206
mean anomaly at epoch: 4.6816°
orbit number at epoch: 21603

The dashed part of the orbit path shows where the satellite is in the earth's shadow,  

DLR